Location: Luxembourg
(49.6117°N, 6.1300°E)
Time: 11:22:14
(UTC+01:00)

N. Korean satellite - Visible Passes

Search period start: 24 January 2019 00:00
Search period end: 03 February 2019 00:00
Orbit: 458 x 509 km, 97.2° (Epoch: 23 January)

Date Brightness Start Highest point End Pass type
(mag) Time Alt. Az. Time Alt. Az. Time Alt. Az.
24 Jan 10.0 05:49:39 10° NE 05:51:43 14° E 05:53:46 10° ESE visible
24 Jan 6.7 07:21:52 10° N 07:25:29 52° WNW 07:29:03 10° SSW visible
24 Jan 6.9 18:01:16 10° S 18:04:57 73° WSW 18:08:42 10° NNW visible
25 Jan 6.7 06:57:08 10° NNE 07:00:51 81° ESE 07:04:30 10° S visible
25 Jan 10.1 19:12:15 10° WSW 19:14:07 13° W 19:15:59 10° WNW visible
26 Jan 8.0 06:32:35 10° NNE 06:36:07 41° E 06:39:35 10° S visible
26 Jan 9.3 18:46:11 10° SSW 18:49:13 23° W 18:52:17 10° NW visible
27 Jan 9.3 06:08:21 10° NE 06:11:18 22° E 06:14:12 10° SSE visible
27 Jan 8.1 18:20:51 10° S 18:24:24 43° W 18:28:00 10° NNW visible
28 Jan 10.1 05:44:45 10° ENE 05:46:23 12° E 05:48:00 10° ESE visible
28 Jan 6.6 07:16:35 10° N 07:20:14 59° WNW 07:23:47 10° SSW visible
28 Jan 6.8 17:55:57 10° SSE 17:59:41 84° W 18:03:26 10° NNW visible
29 Jan 6.9 06:51:53 10° NNE 06:55:34 71° ESE 06:59:09 10° S visible
29 Jan 10.0 19:06:34 10° SW 19:08:47 15° W 19:11:00 10° NW visible
30 Jan 8.3 06:27:23 10° NNE 06:30:48 36° E 06:34:09 10° SSE visible
30 Jan 9.1 18:40:42 10° SSW 18:43:53 26° W 18:47:06 10° NW visible
31 Jan 9.5 06:03:13 10° NE 06:05:57 20° E 06:08:38 10° SE visible
31 Jan 7.2 07:36:09 10° N 07:39:32 35° WNW 07:42:50 10° SW visible
31 Jan 7.8 18:15:28 10° S 18:19:05 49° W 18:22:44 10° NNW visible
01 Feb 10.3 05:40:03 10° ENE 05:41:00 11° E 05:41:57 10° ESE visible
01 Feb 6.5 07:11:16 10° N 07:14:55 68° WNW 07:18:29 10° SSW visible
02 Feb 7.2 06:46:36 10° NNE 06:50:14 61° E 06:53:46 10° S visible
02 Feb 9.9 19:00:56 10° SW 19:03:25 17° W 19:05:55 10° NW visible
